Weather History for Tampa Knight Airport, FL

Change the Weather History Date:

Sunday, March 10, 2013

  Actual Average (KTPA) Record (KTPA)
Temperature  
Mean Temperature 68 °F 66 °F  
Max Temperature 80 °F 76 °F 87 °F (1925)
Min Temperature 55 °F 57 °F 35 °F (1932)
Degree Days  
Heating Degree Days 0 2  
Month to date heating degree days 26  
Since 1 July heating degree days 497  
Cooling Degree Days 2 4  
Month to date cooling degree days 34  
Year to date cooling degree days 147  
Growing Degree Days 18 (Base 50)    
Moisture  
Dew Point 51 °F    
Average Humidity 59    
Maximum Humidity 88    
Minimum Humidity 34    
Precipitation  
Precipitation 0.00 in 0.10 in 1.06 in (2011)
Month to date precipitation 0.97  
Year to date precipitation 6.01  
Sea Level Pressure  
Sea Level Pressure 30.12 in    
Wind  
Wind Speed 8 mph (East)    
Max Wind Speed 18 mph    
Max Gust Speed 25 mph    
Visibility 10 miles    
Events      
T = Trace of Precipitation, MM = Missing Value Source: NWS Daily Summary

Daily Weather History Graph

Daily Weather History Graph

Search for Another Location

Airport:

Trip Planner

Search our weather history database for the weather conditions in past years. The results will help you decide how hot, cold, wet, or windy it might be!

Date:

Astronomy

Mar. 10, 2013 Rise Set
Actual Time 7:44 AM EDT 7:35 PM EDT
Civil Twilight 7:21 AM EDT 7:59 PM EDT
Nautical Twilight 6:54 AM EDT 8:26 PM EDT
Astronomical Twilight 6:26 AM EDT 8:53 PM EDT
Moon 6:40 AM EDT (3/10) 6:43 PM EDT (3/10)
Length of Visible Light 12h 37m
Length of Day
11h 51m
Waning Crescent, 2% of the Moon is Illuminated
Mar 10
Waning Crescent
Mar 11
New
Mar 19
First Quarter
Mar 27
Full
Apr 3
Last Quarter

Hourly Weather History & Observations

Time (EDT) Temp. Dew Point Humidity Pressure Visibility Wind Dir Wind Speed Gust Speed Precip Events Conditions
12:15 AM 60.8 °F 48.2 °F 63% 30.18 in 10.0 mi East 9.2 mph - N/A   Clear
12:35 AM 59.0 °F 48.2 °F 67% 30.18 in 10.0 mi East 6.9 mph - N/A   Clear
12:55 AM 59.0 °F 50.0 °F 72% 30.17 in 10.0 mi ENE 9.2 mph - N/A   Clear
1:15 AM 59.0 °F 50.0 °F 72% 30.16 in 10.0 mi East 6.9 mph - N/A   Clear
1:35 AM 59.0 °F 50.0 °F 72% 30.16 in 10.0 mi ENE 6.9 mph - N/A   Clear
1:55 AM 59.0 °F 50.0 °F 72% 30.15 in 10.0 mi East 6.9 mph - N/A   Clear
3:15 AM 59.0 °F 50.0 °F 72% 30.15 in 10.0 mi East 4.6 mph - N/A   Clear
3:35 AM 57.2 °F 50.0 °F 77% 30.16 in 10.0 mi East 4.6 mph - N/A   Clear
3:55 AM 59.0 °F 50.0 °F 72% 30.15 in 10.0 mi Calm Calm - N/A   Clear
4:15 AM 57.2 °F 50.0 °F 77% 30.14 in 10.0 mi ENE 5.8 mph - N/A   Clear
4:35 AM 55.4 °F 50.0 °F 82% 30.14 in 10.0 mi ENE 5.8 mph - N/A   Clear
4:55 AM 55.4 °F 51.8 °F 88% 30.14 in 10.0 mi ENE 4.6 mph - N/A   Clear
5:15 AM 55.4 °F 51.8 °F 88% 30.13 in 10.0 mi East 4.6 mph - N/A   Clear
5:35 AM 57.2 °F 51.8 °F 82% 30.13 in 10.0 mi ENE 6.9 mph - N/A   Clear
5:55 AM 57.2 °F 51.8 °F 82% 30.14 in 10.0 mi ENE 5.8 mph - N/A   Clear
6:15 AM 57.2 °F 51.8 °F 82% 30.14 in 10.0 mi ENE 6.9 mph - N/A   Clear
6:35 AM 57.2 °F 51.8 °F 82% 30.14 in 10.0 mi ENE 6.9 mph - N/A   Clear
6:55 AM 57.2 °F 51.8 °F 82% 30.14 in 10.0 mi ENE 8.1 mph - N/A   Clear
7:15 AM 57.2 °F 51.8 °F 82% 30.14 in 10.0 mi ENE 6.9 mph - N/A   Clear
7:35 AM 57.2 °F 51.8 °F 82% 30.16 in 10.0 mi ENE 6.9 mph - N/A   Clear
7:55 AM 57.2 °F 51.8 °F 82% 30.16 in 10.0 mi ENE 8.1 mph - N/A   Clear
8:15 AM 57.2 °F 51.8 °F 82% 30.16 in 10.0 mi ENE 6.9 mph - N/A   Clear
8:35 AM 59.0 °F 51.8 °F 77% 30.17 in 10.0 mi ENE 6.9 mph - N/A   Clear
8:55 AM 59.0 °F 51.8 °F 77% 30.17 in 10.0 mi ENE 6.9 mph - N/A   Clear
9:15 AM 59.0 °F 51.8 °F 77% 30.17 in 10.0 mi ENE 8.1 mph - N/A   Clear
9:35 AM 60.8 °F 51.8 °F 72% 30.18 in 10.0 mi ENE 6.9 mph - N/A   Clear
9:55 AM 64.4 °F 51.8 °F 64% 30.18 in 10.0 mi East 9.2 mph - N/A   Clear
10:15 AM 64.4 °F 51.8 °F 64% 30.17 in 10.0 mi East 11.5 mph - N/A   Clear
10:35 AM 68.0 °F 51.8 °F 56% 30.17 in 10.0 mi East 11.5 mph 17.3 mph N/A   Clear
10:55 AM 69.8 °F 51.8 °F 53% 30.18 in 10.0 mi East 12.7 mph - N/A   Clear
11:15 AM 71.6 °F 50.0 °F 46% 30.17 in 10.0 mi ESE 11.5 mph 18.4 mph N/A   Clear
11:35 AM 71.6 °F 50.0 °F 46% 30.14 in 10.0 mi ESE 13.8 mph 21.9 mph N/A   Clear
11:55 AM 73.4 °F 50.0 °F 44% 30.13 in 10.0 mi SE 17.3 mph 21.9 mph N/A   Clear
12:15 PM 73.4 °F 50.0 °F 44% 30.12 in 10.0 mi SE 18.4 mph 23.0 mph N/A   Clear
12:35 PM 73.4 °F 50.0 °F 44% 30.12 in 10.0 mi SE 15.0 mph 20.7 mph N/A   Clear
12:55 PM 75.2 °F 50.0 °F 41% 30.12 in 10.0 mi SE 12.7 mph 25.3 mph N/A   Clear
1:15 PM 77.0 °F 50.0 °F 39% 30.12 in 10.0 mi SE 11.5 mph 18.4 mph N/A   Clear
1:35 PM 77.0 °F 50.0 °F 39% 30.12 in 10.0 mi ESE 10.4 mph 16.1 mph N/A   Clear
1:55 PM 77.0 °F 50.0 °F 39% 30.11 in 10.0 mi East 9.2 mph - N/A   Scattered Clouds
2:15 PM 78.8 °F 50.0 °F 36% 30.10 in 10.0 mi ESE 10.4 mph 18.4 mph N/A   Scattered Clouds
2:35 PM 78.8 °F 50.0 °F 36% 30.09 in 10.0 mi SSE 12.7 mph - N/A   Scattered Clouds
2:55 PM 78.8 °F 50.0 °F 36% 30.09 in 10.0 mi ESE 11.5 mph 16.1 mph N/A   Scattered Clouds
3:15 PM 78.8 °F 50.0 °F 36% 30.09 in 10.0 mi SE 12.7 mph - N/A   Scattered Clouds
3:35 PM 78.8 °F 50.0 °F 36% 30.09 in 10.0 mi ESE 12.7 mph - N/A   Scattered Clouds
3:55 PM 77.0 °F 50.0 °F 39% 30.08 in 10.0 mi SE 11.5 mph 17.3 mph N/A   Mostly Cloudy
4:15 PM 78.8 °F 50.0 °F 36% 30.07 in 10.0 mi SE 10.4 mph - N/A   Scattered Clouds
4:35 PM 78.8 °F 50.0 °F 36% 30.07 in 10.0 mi SSE 8.1 mph - N/A   Scattered Clouds
4:55 PM 80.6 °F 50.0 °F 34% 30.06 in 10.0 mi SSE 9.2 mph - N/A   Mostly Cloudy
5:15 PM 78.8 °F 50.0 °F 36% 30.06 in 10.0 mi SSE 8.1 mph - N/A   Mostly Cloudy
5:35 PM 78.8 °F 50.0 °F 36% 30.06 in 10.0 mi SSE 8.1 mph - N/A   Scattered Clouds
5:55 PM 78.8 °F 50.0 °F 36% 30.06 in 10.0 mi East 8.1 mph - N/A   Mostly Cloudy
6:15 PM 78.8 °F 50.0 °F 36% 30.06 in 10.0 mi SE 8.1 mph - N/A   Mostly Cloudy
6:35 PM 75.2 °F 51.8 °F 44% 30.06 in 10.0 mi Calm Calm - N/A   Mostly Cloudy
6:55 PM 73.4 °F 51.8 °F 47% 30.06 in 10.0 mi Calm Calm - N/A   Mostly Cloudy
7:15 PM 71.6 °F 55.4 °F 57% 30.07 in 10.0 mi Calm Calm - N/A   Mostly Cloudy
7:35 PM 71.6 °F 53.6 °F 53% 30.08 in 10.0 mi Calm Calm - N/A   Overcast
8:15 PM 71.6 °F 51.8 °F 50% 30.09 in 10.0 mi East 12.7 mph 16.1 mph N/A   Overcast
8:35 PM 71.6 °F 51.8 °F 50% 30.09 in 10.0 mi SE 5.8 mph 17.3 mph N/A   Mostly Cloudy
8:55 PM 69.8 °F 53.6 °F 56% 30.10 in 10.0 mi ESE 6.9 mph - N/A   Overcast
9:15 PM 69.8 °F 51.8 °F 53% 30.11 in 10.0 mi SE 8.1 mph 16.1 mph N/A   Mostly Cloudy
9:35 PM 69.8 °F 51.8 °F 53% 30.11 in 10.0 mi ESE 10.4 mph - N/A   Scattered Clouds
9:55 PM 68.0 °F 51.8 °F 56% 30.11 in 10.0 mi ESE 11.5 mph 17.3 mph N/A   Scattered Clouds
10:15 PM 68.0 °F 51.8 °F 56% 30.12 in 10.0 mi East 9.2 mph 16.1 mph N/A   Clear
10:35 PM 66.2 °F 51.8 °F 60% 30.12 in 10.0 mi ESE 6.9 mph - N/A   Clear
10:55 PM 64.4 °F 51.8 °F 64% 30.12 in 10.0 mi ESE 9.2 mph - N/A   Clear
11:15 PM 64.4 °F 51.8 °F 64% 30.12 in 10.0 mi East 8.1 mph - N/A   Clear
11:35 PM 64.4 °F 53.6 °F 68% 30.12 in 10.0 mi ESE 9.2 mph 16.1 mph N/A   Clear
11:55 PM 64.4 °F 53.6 °F 68% 30.12 in 10.0 mi ESE 6.9 mph - N/A   Clear
12:15 AM 62.6 °F 53.6 °F 72% 30.12 in 10.0 mi ESE 5.8 mph - N/A   Clear
12:35 AM 62.6 °F 53.6 °F 72% 30.12 in 10.0 mi ESE 6.9 mph - N/A   Clear